STARLINK-1797, 46698

Orbit data source: Space-Track

STARLINK-1797, 46698 is a payload satellite owned by SpaceX/Seattle (US) in LEO that was launched on Sun, 18 Oct 2020 UTC via an FALCON 9 launch vehicle from the Air Force Eastern Test Range (AFETR). Payload-class satellites include a variety of spacecraft equipped with specific instruments for various scientific and technological missions. These include communications satellites like Starlink; space stations such as the ISS; scientific satellites like the Hubble; Earth observation satellites from companies like Planet Labs, Umbra, and HawkEye 360; GPS; miniature CubeSats for education and research; and military/defense satellites.

Not visible in the next 10 days
Identifier
46698, 2020-073AE
Orbit
LEO
Country
Flag of USUS
Related business
Manufacturer
SpaceX/Seattle
Mission
Partially operational Commercial Communications
Bus & Motor
STARLINK, Unknown motor
Mass
260 kg wet, ~248 kg dry
Launch date (UTC)
2020-10-18 (6 years ago)
Launch vehicle
FALCON 9
Launch site
Air Force Eastern Test Range (AFETR)
Object type
Payload
Rocket body
Debris
Shape & HBR
Box + 1 Pan, 10.1 m
Radar Cross Section
13.562 m², Large (>1 m²)

Expand to show TLE details & history
Last TLE update: 5 hours ago

TLE from 5 hours ago
0 STARLINK-1797
1 46698U 20073AE  26263.25002315  .01114589  64197-3  20783-2 0  9993
2 46698  53.0285 324.2507 0004149  26.0360 157.4874 16.00532400  6076
Epoch: 2026-09-20T06:00Z
TLE epoch observation values (Epoch: 2026-09-20T06:00:02.000Z)
Latitude
-2.92929°
Longitude
57.29049°
Altitude
276.832 km
Speed
7.741 km/s
True Right ascension
09h 45m 46s
True Declination
-2° 54' 38"
Sunlit
Object was in daylight at epoch
Visualization orbit readout
Latitude
Unknown
Longitude
Unknown
Altitude
Unknown
Speed
Unknown
Apparent Right ascension
Unknown
Apparent Declination
Unknown
Sunlit
N/A
Visualization observer readout
Local Sidereal Time
03:35:39
Azimuth
Unknown
Elevation
Unknown
Doppler factor
Unknown
Orbital elements
Apogee altitude
275.989 km
Perigee altitude
270.47 km
Semi-major axis
6,651.366 km
Eccentricity
0.00041
Inclination
53.0285°
RAAN
324.2507°
Arg. of periapsis
26.036°
True anomaly
157.5056°
Mean anomaly
157.4874°
Eccentric anomaly
157.4965°
Mean motion
4.00108 °/min
Orbital period
89.98 mins
BSTAR
0.0020783
Loading maneuver chart data...
Computing Atmospheric mass density...

Documentation

Showing up to 5 results
|